Home   Weather   The Valley   Past weeks
Flag for Anguilla

Past Weather in The Valley, Anguilla — Yesterday and Last 2 Weeks

Now
86 °F

Passing clouds.


Feels Like: 95 °F
Forecast: 89 / 81 °F
Wind: 10 mph from East

Location: Juliana Airport - Saint Maarten

Current Time: Oct 19, 2019 at 11:02:18 am

Latest Report: Oct 19, 2019 at 9:00 am


Visibility: N/A

Pressure: 30.01 "Hg

Humidity: 70%

Dew Point: 75 °F

Location of The ValleyLocation

Past Weather in The Valley — Graph

°F

The Valley Temperature Yesterday

Maximum temperature yesterday: 86 °F (at 9:00 am)
Minimum temperature yesterday: 79 °F (at 1:00 am)
Average temperature yesterday: 82 °F

High & Low Weather Summary for the Past Weeks

 TemperatureHumidityPressure
High91 °F (Oct 4, 11:00 am)94% (Oct 14, 9:22 pm)30.04 "Hg (Oct 14, 9:22 pm)
Low75 °F (Oct 14, 9:22 pm)52% (Oct 10, 2:00 pm)29.86 "Hg (Oct 10, 2:00 pm)
Average85 °F73%29.95 "Hg
* Reported Oct 4 9:00 am — Oct 19 9:00 am, The Valley. Weather by CustomWeather, © 2019

Note: Actual official high and low records may vary slightly from our data, if they occured in-between our weather recording intervals... More about our weather records

Advertising

The Valley Weather History for the Previous 24 Hours

Scroll right to see more
 ConditionsComfort  
Time TempWeatherWind HumidityBarometerVisibility
9:00 am
Sat, Oct 19
86 °FPassing clouds.10 mph70%30.01 "HgN/A
8:00 am84 °FScattered clouds.6 mph79%29.98 "HgN/A
7:00 am82 °FPartly sunny.3 mph74%29.98 "HgN/A
6:00 am81 °FPassing clouds.6 mph79%29.98 "HgN/A
5:00 am81 °FPassing clouds.5 mph84%29.95 "HgN/A
4:00 am81 °FPassing clouds.12 mph84%29.95 "HgN/A
3:00 am82 °FPassing clouds.8 mph79%29.95 "HgN/A
2:00 am82 °FPassing clouds.8 mph79%29.95 "HgN/A
1:00 am82 °FPassing clouds.7 mph79%29.98 "HgN/A
12:00 am82 °FPassing clouds.7 mph79%29.98 "HgN/A
11:00 pm
Fri, Oct 18
82 °FPassing clouds.7 mph84%29.98 "HgN/A
10:00 pm82 °FPassing clouds.7 mph84%29.98 "HgN/A
9:00 pm81 °FPassing clouds.6 mph84%29.98 "HgN/A
8:00 pm81 °FPassing clouds.7 mph84%29.95 "HgN/A
7:00 pm82 °FPassing clouds.8 mph79%29.95 "HgN/A
6:00 pm79 °FSprinkles. Passing clouds.7 mph89%29.95 "HgN/A
5:00 pm81 °FPassing clouds.8 mph84%29.95 "HgN/A
4:00 pm81 °FPassing clouds.15 mph84%29.95 "HgN/A
3:00 pm81 °FSprinkles. Passing clouds.15 mph84%29.95 "HgN/A
2:00 pm86 °FScattered showers. Cloudy.8 mph79%29.95 "HgN/A
1:00 pm84 °FScattered showers. Cloudy.9 mph74%29.95 "HgN/A
12:00 pm82 °FSprinkles. Scattered clouds.8 mph79%29.98 "HgN/A
11:00 am81 °FScattered showers. Scattered clouds.6 mph84%29.98 "HgN/A
Weather by CustomWeather, © 2019

See weather overview